EDT,Max TemperatureF,Mean TemperatureF,Min TemperatureF,Max Dew PointF,MeanDew PointF,Min DewpointF,Max Humidity, Mean Humidity, Min Humidity, Max Sea Level PressureIn, Mean Sea Level PressureIn, Min Sea Level PressureIn, Max VisibilityMiles, Mean VisibilityMiles, Min VisibilityMiles, Max Wind SpeedMPH, Mean Wind SpeedMPH, Max Gust SpeedMPH,PrecipitationIn, CloudCover, Events, WindDirDegrees
2013-3-1,50,40,29,34,29,25,91,63,40,29.95,29.92,29.88,12,12,10,16,6,22,0.00,3,,314
2013-3-2,45,40,34,35,32,24,93,82,60,29.95,29.92,29.85,12,12,12,9,3,,0.00,6,,329
2013-3-3,46,36,26,24,21,18,86,56,32,30.02,29.95,29.88,12,12,12,17,7,24,0.00,1,,328
2013-3-4,51,38,25,28,17,10,85,50,21,30.17,30.10,30.03,12,12,12,16,6,23,0.00,0,,309
2013-3-5,54,42,31,49,40,27,100,82,54,30.11,29.91,29.59,12,10,3,16,4,23,0.16,6,Rain,170
2013-3-6,53,45,36,50,32,22,88,63,36,30.10,29.75,29.57,12,12,7,24,16,37,0.07,5,Rain,307
2013-3-7,55,44,33,29,28,26,79,56,34,30.27,30.18,30.09,12,12,12,14,9,22,0.00,0,,340
2013-3-8,56,42,29,27,24,20,84,46,24,30.32,30.25,30.17,12,12,12,18,9,26,0.00,0,,345
2013-3-9,62,46,30,37,30,25,91,61,28,30.37,30.31,30.25,12,12,12,12,5,16,0.00,0,,17
2013-3-10,66,48,30,37,31,24,97,59,21,30.33,30.28,30.23,12,12,12,12,3,17,0.00,0,,172
2013-3-11,68,51,34,54,45,31,94,73,52,30.25,30.10,29.96,12,12,12,20,6,30,0.00,3,,178
2013-3-12,73,63,52,63,54,30,94,75,38,29.97,29.85,29.78,12,11,2,22,14,33,0.22,5,Rain,229
2013-3-13,59,46,34,37,29,19,94,55,24,30.16,30.04,29.98,12,8,1,18,6,30,0.00,1,,321
2013-3-14,53,42,30,30,20,16,77,46,23,30.31,30.22,30.15,12,12,12,17,7,23,0.00,0,,310
2013-3-15,65,46,26,36,27,17,94,52,25,30.24,30.10,29.94,12,12,12,20,7,30,0.00,0,,238
2013-3-16,79,65,51,43,40,36,61,42,25,29.93,29.85,29.74,12,12,12,25,11,33,0.00,1,,230
2013-3-17,73,58,45,52,43,38,87,64,37,30.13,29.98,29.87,12,11,2,15,5,25,0.00,2,,66
2013-3-18,51,46,41,45,41,39,100,90,74,30.17,30.08,29.91,12,6,1,18,9,26,0.08,8,Rain-Thunderstorm,68
2013-3-19,68,55,42,45,39,14,100,78,14,30.05,29.90,29.84,12,7,1,18,6,28,0.00,5,,314
2013-3-20,56,44,33,32,21,8,87,45,17,30.15,30.01,29.84,12,12,12,10,5,17,0.00,1,,309
2013-3-21,47,40,32,30,16,8,78,41,20,29.99,29.85,29.78,12,11,10,17,8,29,0.00,0,,326
2013-3-22,53,36,21,28,17,12,83,48,23,30.13,30.06,29.99,12,11,0,14,4,22,0.07,1,,273
2013-3-23,51,42,33,39,33,23,95,75,46,30.09,30.03,29.94,12,12,10,5,2,,0.02,5,Rain,288
2013-3-24,42,38,35,41,39,34,100,93,76,29.94,29.68,29.56,12,7,2,16,7,25,0.76,7,Rain,53
2013-3-25,48,42,38,41,36,21,100,86,36,29.89,29.64,29.58,12,8,2,18,5,30,0.04,7,Rain,302
2013-3-26,50,42,33,27,26,24,73,54,37,30.17,30.00,29.91,12,12,12,17,9,25,0.00,5,,308
2013-3-27,53,42,30,26,22,18,81,45,26,30.27,30.21,30.17,12,12,12,20,9,26,0.00,0,,330
2013-3-28,56,42,27,30,22,19,88,42,23,30.32,30.24,30.18,12,12,12,18,9,26,0.00,0,,333
2013-3-29,61,44,27,37,26,21,91,52,22,30.38,30.29,30.22,12,11,7,16,4,22,0.00,1,,279
2013-3-30,64,54,44,48,43,35,100,73,46,30.27,30.19,30.12,12,11,5,12,3,17,0.12,5,Rain,200
2013-3-31,72,60,49,54,50,45,96,74,48,30.12,29.94,29.84,12,11,3,18,8,26,0.16,6,Rain,216